Location: Aufkirchen
(47.9603°N, 11.3653°E)
Time: 07:44:57
(UTC+01:00)

Transit 2A - Pass Details

Date: 01 December 2020
Orbit: 598 x 960 km, 66.7° (Epoch: 16 January)

Event Time Altitude Azimuth Distance (km) Brightness Sun altitude
Rises 22:15:04 0° 318° (NW) 3,454 9.9 -56.1°
Enters shadow 22:15:10 - 319° (NW) 3,427 9.9 -56.1°
Reaches altitude 10° 22:19:34 10° 350° (N) 2,420 - -56.7°
Maximum altitude 22:21:31 12° 11° (N) 2,251 - -56.9°
Drops below altitude 10° 22:23:26 10° 32° (NNE) 2,329 - -57.2°
Sets 22:27:31 0° 64° (ENE) 3,153 - -57.6°
